Date,TemperatureHighF,TemperatureAvgF,TemperatureLowF,DewpointHighF,DewpointAvgF,DewpointLowF,HumidityHigh,HumidityAvg,HumidityLow,PressureMaxIn,PressureMinIn,WindSpeedMaxMPH,WindSpeedAvgMPH,GustSpeedMaxMPH,PrecipitationSumIn
2013-1-1,15,2,-14,11,-4,-19,86,77,57,30.34,30.14,12,1,12,0.00
2013-1-2,20,17,15,14,13,10,89,82,74,30.14,30.03,8,2,8,0.00
2013-1-3,22,18,12,17,13,7,90,82,72,30.22,30.05,12,2,12,0.00
2013-1-4,33,16,4,22,11,0,91,80,61,30.21,30.02,10,1,10,0.00
2013-1-5,29,15,1,21,10,-3,92,81,66,30.21,29.92,9,1,9,0.00
2013-1-6,28,22,14,23,17,10,88,79,60,30.23,29.99,9,2,9,0.00
2013-1-7,35,23,15,26,18,9,88,80,69,30.14,29.90,16,2,16,0.00
2013-1-8,39,25,7,30,20,3,92,83,65,30.09,29.80,13,2,13,0.00
2013-1-9,35,30,17,29,23,13,86,77,63,30.40,29.85,18,4,18,0.00
2013-1-10,42,30,17,34,20,13,95,70,35,30.44,29.81,13,2,13,0.24
2013-1-11,41,37,35,41,36,34,98,97,95,29.83,29.40,12,3,12,0.06
2013-1-12,43,25,13,42,20,6,98,83,74,30.06,29.39,20,5,20,0.01
2013-1-13,13,10,4,8,4,0,84,79,72,30.26,30.02,8,2,8,0.00
2013-1-14,13,4,-2,6,0,-6,86,81,70,30.46,30.26,12,1,12,0.00
2013-1-15,26,17,6,18,11,2,87,77,57,30.42,29.88,13,3,13,0.00
2013-1-16,27,21,12,25,14,1,91,77,61,30.21,29.65,13,3,13,0.09
2013-1-17,12,5,-7,3,-2,-11,82,72,63,30.45,30.21,7,1,7,0.00
2013-1-18,32,18,-6,26,14,-10,91,85,77,30.43,29.80,12,2,12,0.09
2013-1-19,35,22,2,31,18,-4,90,81,61,30.10,29.60,22,5,22,0.00
2013-1-20,5,-1,-8,-4,-7,-12,85,75,60,30.38,30.10,13,3,13,0.00
2013-1-21,-2,-10,-16,-7,-17,-22,80,71,58,30.38,30.27,17,2,17,0.00
2013-1-22,0,-10,-20,-11,-17,-25,80,72,57,30.49,30.37,8,1,8,0.00
2013-1-23,11,-4,-17,5,-9,-22,84,76,63,30.68,30.21,14,2,14,0.00
2013-1-24,9,-1,-15,4,-8,-20,83,73,56,30.78,30.33,8,1,8,0.01
2013-1-25,17,12,1,12,7,-3,86,82,74,30.33,30.00,12,2,12,0.08
2013-1-26,20,9,-10,13,3,-15,87,76,64,30.47,30.29,10,2,10,0.00
2013-1-27,33,27,20,27,21,13,93,78,57,30.30,29.89,12,2,12,0.36
2013-1-28,30,27,22,28,25,20,94,91,89,29.95,29.85,0,0,0,0.02
2013-1-29,33,30,28,31,28,25,92,90,88,29.73,29.63,9,2,9,0.08
2013-1-30,28,19,9,25,15,5,89,84,80,29.71,29.57,12,3,12,0.00
2013-1-31,9,6,-3,5,0,-8,84,78,70,30.22,29.68,13,3,13,0.00
2013-2-1,2,-5,-16,-6,-13,-21,79,69,53,30.35,30.22,8,2,8,0.00
2013-2-2,14,4,-11,1,-4,-16,84,71,53,30.27,30.05,8,1,8,0.00
2013-2-3,13,7,-1,3,0,-6,83,73,55,30.10,30.00,12,2,12,0.00
2013-2-4,15,2,-18,2,-6,-23,88,68,43,30.15,29.92,6,0,6,0.00
2013-2-5,22,12,-7,17,8,-11,89,84,68,30.15,29.74,10,1,10,0.14
2013-2-6,23,10,-10,21,6,-14,92,85,74,30.25,30.12,6,1,6,0.07
2013-2-7,24,23,18,22,20,14,92,90,84,30.34,30.15,7,1,7,0.00
2013-2-8,28,16,3,18,10,0,89,80,58,30.46,30.33,6,0,6,0.00
2013-2-9,25,20,3,22,17,0,93,89,82,30.38,30.07,15,3,15,0.00
2013-2-10,36,29,24,34,27,22,96,93,92,30.07,29.30,17,2,17,0.33
2013-2-11,36,28,22,34,25,18,94,90,86,29.99,29.29,9,1,9,0.06
2013-2-12,29,21,11,24,17,8,89,86,81,30.03,29.81,10,1,10,0.00
2013-2-13,38,26,14,32,23,11,94,88,73,29.82,29.67,6,1,6,0.00
2013-2-14,32,28,25,28,24,22,91,85,72,29.85,29.67,8,1,8,0.00
2013-2-15,18,12,-1,7,3,-5,83,69,50,30.30,30.22,12,2,12,0.00
2013-2-16,19,0,-16,4,-8,-21,89,71,44,30.29,30.24,7,1,7,0.00
2013-2-17,27,8,-18,15,-1,-24,88,68,52,30.28,29.88,14,3,14,0.00
2013-2-18,35,27,18,28,22,14,91,81,73,29.87,29.53,13,3,13,0.00
2013-2-19,18,7,1,14,0,-6,86,73,59,30.34,29.66,15,4,15,0.00
2013-2-20,24,12,-1,10,5,-5,84,74,54,30.53,30.34,8,2,8,0.00
2013-2-21,31,14,-10,18,7,-15,90,76,52,30.58,30.23,12,2,12,0.00
2013-2-22,28,24,16,25,21,12,91,88,85,30.23,29.86,7,1,7,0.17
2013-2-23,15,14,14,12,12,11,90,89,88,29.86,29.86,0,0,0,0.00
2013-2-24,35,30,24,28,25,21,89,82,72,30.13,30.06,5,0,4,0.00
2013-2-25,33,23,5,28,19,2,90,85,78,30.18,30.11,6,1,6,0.00
2013-2-26,41,28,12,29,22,9,92,79,56,30.16,29.93,13,3,13,0.00
2013-2-27,32,31,30,28,26,24,89,83,76,30.02,29.87,16,4,16,0.00
2013-2-28,30,26,22,26,21,16,87,81,73,30.29,30.01,14,4,14,0.00
2013-3-1,30,22,8,18,15,4,85,74,58,30.41,30.29,12,3,12,0.00
2013-3-2,32,12,-7,14,2,-11,88,68,32,30.42,30.27,9,1,9,0.00
2013-3-3,37,14,-9,14,2,-14,87,63,26,30.28,30.14,8,1,8,0.00
2013-3-4,33,22,6,19,10,2,84,60,38,30.18,30.10,9,2,9,0.00
2013-3-5,31,26,23,22,18,13,88,73,52,30.30,30.08,12,2,12,0.01
2013-3-6,34,24,8,19,16,4,87,73,48,30.41,30.27,12,2,12,0.00
2013-3-7,38,18,-3,21,10,-7,90,71,42,30.49,30.40,6,1,6,0.00
2013-3-8,43,31,20,29,23,14,84,72,55,30.45,30.21,12,3,12,0.00
2013-3-9,35,33,30,34,30,24,96,90,75,30.21,29.78,12,2,12,0.47
2013-3-10,34,33,29,34,30,26,97,90,83,29.99,29.80,12,3,12,0.04
2013-3-11,28,27,24,27,23,19,93,87,79,29.88,29.74,14,3,14,0.09
2013-3-12,31,24,20,19,18,15,87,78,54,30.14,29.79,12,3,12,0.00
2013-3-13,37,22,12,16,9,2,83,61,24,30.36,30.14,10,2,10,0.00
2013-3-14,38,22,5,28,16,0,89,78,66,30.32,30.07,12,1,12,0.00
2013-3-15,32,27,20,28,22,16,88,80,63,30.07,29.95,10,2,10,0.05
2013-3-16,28,19,9,16,11,4,88,73,52,30.26,29.98,13,2,13,0.07
2013-3-17,30,13,-13,13,0,-18,85,60,29,30.35,30.05,12,2,12,0.00
2013-3-18,31,24,18,28,19,13,89,84,70,30.05,29.56,13,4,13,0.15
2013-3-19,30,18,10,15,8,0,88,65,39,30.09,29.63,20,6,20,0.00
2013-3-20,21,11,1,7,2,-4,79,67,52,30.17,30.08,14,3,14,0.00
2013-3-21,33,16,-1,15,7,-6,85,69,43,30.18,30.08,9,1,9,0.00
2013-3-22,36,18,-3,22,10,-8,86,72,49,30.16,30.09,8,1,8,0.00
2013-3-23,37,24,8,24,17,5,89,75,56,30.24,30.15,9,1,9,0.00
2013-3-24,33,27,20,26,21,16,84,77,66,30.18,30.01,14,2,14,0.00
2013-3-25,36,25,11,25,19,7,89,77,55,30.24,30.06,12,1,12,0.00
2013-3-26,40,32,25,26,23,18,87,68,42,30.31,30.24,8,1,8,0.00
2013-3-27,46,34,25,27,22,17,87,64,32,30.35,30.30,8,1,8,0.00
2013-3-28,49,32,14,24,18,10,87,61,28,30.39,30.30,9,1,9,0.00
2013-3-29,51,35,17,28,22,13,86,63,32,30.36,30.16,10,2,10,0.00
2013-3-30,42,36,31,40,34,27,96,92,77,30.16,29.81,10,1,10,0.51
2013-3-31,39,32,25,32,24,9,97,74,40,30.02,29.73,18,4,18,0.03
2013-4-1,35,27,20,14,11,7,69,52,32,30.21,30.02,13,4,13,0.00
2013-4-2,38,27,19,17,12,5,72,54,25,30.38,30.21,10,2,10,0.00
2013-4-3,44,29,9,24,13,4,84,56,27,30.48,30.12,21,3,21,0.00
2013-4-4,49,40,28,33,25,18,80,58,35,30.17,30.00,14,3,14,0.00
2013-4-5,41,32,20,30,19,14,91,62,34,30.30,30.11,9,2,9,0.00
2013-4-6,45,36,32,35,31,28,95,85,60,30.10,29.58,12,3,12,0.26
2013-4-7,42,35,31,34,32,28,95,88,70,29.98,29.68,6,1,6,0.10
2013-4-8,41,37,32,39,36,30,97,95,91,30.08,29.80,4,0,4,0.85
2013-4-9,41,36,33,35,30,18,97,79,50,30.19,30.04,12,3,12,0.00
2013-4-10,41,36,30,27,22,16,72,59,42,30.25,30.04,14,3,14,0.00
2013-4-11,36,32,28,29,24,16,93,74,48,30.06,29.78,16,6,16,0.01
2013-4-12,37,30,27,30,27,24,94,88,75,29.83,29.71,8,2,8,0.16
2013-4-13,38,29,22,25,23,18,89,78,55,30.03,29.83,9,2,9,0.07
2013-4-14,38,28,14,33,24,11,95,85,58,30.05,29.67,13,1,13,0.60
2013-4-15,40,36,34,34,31,28,95,82,70,29.93,29.61,20,4,20,0.01
2013-4-16,47,38,28,32,29,25,87,72,44,30.39,29.93,12,3,12,0.00
2013-4-17,43,35,26,32,28,24,92,77,58,30.42,30.03,10,2,10,0.01
2013-4-18,35,33,31,33,32,29,96,94,91,30.02,29.36,16,3,16,0.35
2013-4-19,33,28,17,30,26,14,95,89,76,29.98,29.31,16,3,16,0.19
2013-4-20,41,24,6,22,14,3,92,68,33,30.41,29.98,12,2,12,0.00
2013-4-21,38,33,24,37,28,19,95,84,77,30.43,30.14,20,4,20,0.17
2013-4-22,48,39,32,38,32,22,95,79,45,30.24,30.09,10,2,10,0.02
2013-4-23,44,35,25,33,27,21,96,75,46,30.10,30.03,10,2,10,0.42
2013-4-24,49,34,20,34,25,15,92,71,42,30.05,29.91,18,3,18,0.00
2013-4-25,50,37,26,32,28,22,94,71,36,30.22,29.96,14,2,14,0.00
2013-4-26,67,47,32,44,37,28,95,70,40,30.19,30.06,13,2,13,0.12
2013-4-27,73,50,30,47,37,28,96,68,28,30.16,29.94,10,2,10,0.00
2013-4-28,74,55,36,53,43,34,97,68,35,29.94,29.69,16,3,16,0.36
2013-4-29,75,58,43,53,48,42,98,74,35,29.79,29.62,8,2,8,0.07
2013-4-30,81,62,45,60,48,35,98,65,32,29.90,29.44,22,4,22,0.00
2013-5-1,52,40,33,41,36,31,96,84,52,30.49,29.90,9,1,9,0.18
2013-5-2,33,32,30,32,30,28,96,93,90,30.55,30.45,8,1,8,0.75
2013-5-3,32,32,30,31,30,28,94,92,90,30.45,30.23,9,3,9,0.11
2013-5-4,44,36,32,40,34,31,96,92,84,30.24,30.19,7,2,7,0.18
2013-5-5,60,43,34,44,37,33,96,80,52,30.23,30.12,7,1,7,0.00
2013-5-6,74,50,31,48,39,30,97,69,33,30.16,30.03,6,1,6,0.00
2013-5-7,80,57,34,48,40,33,97,62,22,30.10,29.97,10,1,10,0.00
2013-5-8,76,58,38,52,46,36,97,68,35,30.02,29.97,10,1,10,0.00
2013-5-9,59,45,38,49,41,32,95,85,69,30.16,29.97,13,2,13,0.14
2013-5-10,63,46,32,37,30,22,86,56,21,30.16,29.89,10,2,10,0.00
2013-5-11,47,41,37,40,31,23,85,66,47,30.12,29.85,16,4,16,0.03
2013-5-12,54,42,30,26,21,12,74,47,20,30.18,30.10,16,4,16,0.00
2013-5-13,60,45,24,36,27,20,88,53,26,30.18,29.75,14,3,14,0.00
2013-5-14,86,64,37,51,42,33,89,50,23,29.80,29.41,15,3,15,0.00
2013-5-15,80,66,52,47,42,34,75,46,20,29.83,29.55,14,4,14,0.00
2013-5-16,77,62,45,48,37,26,88,46,18,30.00,29.82,9,2,9,0.00
2013-5-17,71,60,52,52,44,33,77,57,41,30.07,29.99,12,3,12,0.00
2013-5-18,74,60,52,63,56,48,96,87,66,30.04,29.85,10,2,10,0.30
2013-5-19,85,67,54,68,61,53,99,84,48,29.88,29.65,13,2,13,1.32
2013-5-20,76,65,52,64,60,50,98,85,58,29.68,29.51,14,3,14,1.08
2013-5-21,62,51,44,54,48,42,97,89,70,29.75,29.57,7,2,7,0.65
2013-5-22,54,47,43,48,44,41,94,89,80,30.04,29.73,14,3,14,0.01
2013-5-23,56,46,34,43,34,27,90,65,38,30.38,30.04,12,4,12,0.00
2013-5-24,68,49,29,42,34,27,97,63,30,30.47,30.28,9,2,9,0.00
2013-5-25,68,55,42,48,43,39,92,67,40,30.35,30.27,12,2,12,0.00
2013-5-26,70,53,36,44,38,31,96,64,25,30.32,30.15,13,2,13,0.00
2013-5-27,69,60,46,48,45,40,87,59,45,30.17,29.91,13,3,13,0.00
2013-5-28,64,57,53,56,51,45,94,79,68,29.91,29.72,8,2,8,0.00
2013-5-29,81,64,56,66,59,54,97,84,52,29.85,29.68,12,2,12,0.07
2013-5-30,78,69,61,69,64,60,97,85,65,29.75,29.55,18,3,18,0.07
2013-5-31,81,66,55,62,59,52,96,78,45,29.63,29.51,21,5,21,0.34
2013-6-1,73,56,43,63,53,41,98,91,53,29.89,29.56,9,2,9,0.08
2013-6-2,65,50,42,47,42,38,96,76,37,30.07,29.89,12,2,12,0.02
2013-6-3,70,53,34,46,39,32,97,64,32,30.12,30.02,8,1,8,0.00
2013-6-4,64,54,46,53,47,39,96,80,59,30.17,30.09,10,1,10,0.17
2013-6-5,54,52,51,52,51,50,98,97,91,30.16,30.00,7,1,7,1.25
2013-6-6,54,51,49,53,50,49,98,96,93,30.05,30.00,5,1,5,0.02
2013-6-7,68,56,44,55,48,40,98,78,44,30.06,29.94,5,0,5,0.00
2013-6-8,74,59,47,59,52,46,98,80,44,29.99,29.93,10,2,10,0.43
2013-6-9,63,56,48,61,54,47,97,95,89,30.00,29.84,7,1,7,0.21
2013-6-10,79,65,54,66,60,53,99,85,55,29.86,29.78,7,1,7,0.00
2013-6-11,80,66,52,67,60,51,98,82,54,29.88,29.80,8,1,8,0.00
2013-6-12,78,64,51,66,56,50,98,78,46,29.90,29.75,12,1,12,0.00
2013-6-13,76,62,51,55,51,47,92,71,40,30.11,29.87,9,1,9,0.00
2013-6-14,78,61,44,60,50,42,98,72,37,30.15,29.93,12,1,12,0.00
2013-6-15,70,64,57,66,61,56,97,90,83,29.95,29.80,10,0,10,0.28
2013-6-16,81,65,49,64,55,48,99,75,35,29.91,29.78,13,2,13,0.16
2013-6-17,74,59,48,64,54,45,98,83,62,30.06,29.84,8,1,8,1.00
2013-6-18,75,58,40,51,44,39,97,66,30,30.15,30.05,6,1,6,0.00
2013-6-19,79,61,44,64,52,42,97,76,49,30.12,29.99,8,1,8,0.00
2013-6-20,79,65,54,67,61,52,98,86,62,30.07,29.96,13,2,13,1.68
2013-6-21,68,65,61,66,63,60,99,96,89,30.11,29.72,5,1,5,0.79
2013-6-22,73,65,59,69,64,58,99,95,83,30.05,29.86,7,1,7,0.11
2013-6-23,84,72,63,72,66,61,98,83,55,29.89,29.69,16,3,16,0.00
2013-6-24,85,70,56,72,64,54,99,82,53,29.90,29.78,8,2,8,0.00
2013-6-25,84,72,59,72,66,57,98,83,58,29.83,29.72,8,1,8,0.00
2013-6-26,84,71,62,75,68,60,99,92,69,29.75,29.64,8,1,8,0.01
2013-6-27,84,71,59,71,63,57,99,78,47,29.77,29.67,13,2,13,0.04
2013-6-28,72,64,59,67,61,57,97,90,78,29.76,29.64,8,2,8,0.03
2013-6-29,72,63,50,60,55,48,94,78,49,29.97,29.74,10,2,10,0.00
2013-6-30,81,63,45,58,51,44,98,69,33,30.11,29.97,8,1,8,0.00
2013-7-1,82,64,51,61,53,47,98,70,39,30.18,30.11,7,1,7,0.00
2013-7-2,82,62,44,56,47,37,97,65,24,30.18,30.07,7,0,7,0.00
2013-7-3,83,60,43,60,50,41,98,74,34,30.09,29.97,7,1,7,0.00
2013-7-4,85,69,55,67,60,53,97,75,48,29.99,29.88,12,2,12,0.00
2013-7-5,86,73,60,66,61,58,95,68,41,29.93,29.82,13,3,13,0.00
2013-7-6,88,74,64,73,66,60,95,77,48,29.88,29.83,12,2,12,0.01
2013-7-7,84,75,66,76,70,64,97,85,66,29.88,29.81,9,1,9,0.01
2013-7-8,85,68,60,72,64,59,97,88,62,29.97,29.85,5,0,5,0.00
2013-7-9,75,68,58,72,66,56,98,94,88,29.97,29.73,10,1,10,0.00
2013-7-10,77,67,59,64,58,54,93,74,46,30.01,29.82,13,3,13,0.01
2013-7-11,83,64,50,63,56,49,98,80,43,30.11,30.00,8,1,8,0.00
2013-7-12,84,70,55,66,60,53,98,73,46,30.06,29.94,17,4,17,0.00
2013-7-13,82,72,67,69,63,59,89,73,60,30.08,29.93,12,3,12,0.00
2013-7-14,86,73,65,71,65,62,94,79,47,30.18,30.09,15,1,15,0.00
2013-7-15,88,73,57,71,64,56,98,78,47,30.24,30.16,10,2,10,0.00
2013-7-16,92,77,65,76,70,63,98,80,51,30.19,30.12,13,2,13,0.00
2013-7-17,92,77,64,74,69,63,99,78,48,30.20,30.08,12,2,12,0.00
2013-7-18,92,79,66,75,70,64,98,75,51,30.08,29.67,20,3,20,0.00
2013-7-19,84,75,61,73,66,58,98,75,46,29.80,29.61,15,2,15,0.04
2013-7-20,75,64,56,60,55,48,95,72,45,30.00,29.79,9,1,9,0.00
2013-7-21,76,64,54,64,57,48,93,78,61,30.00,29.84,8,1,8,0.00
2013-7-22,85,70,60,74,63,55,96,81,55,29.86,29.60,12,2,12,0.00
2013-7-23,72,62,51,55,52,47,91,70,44,30.01,29.76,8,1,8,0.00
2013-7-24,72,58,43,59,51,41,98,79,51,30.08,29.98,8,1,8,0.00
2013-7-25,81,63,50,69,58,48,97,87,50,29.99,29.86,8,1,8,0.09
2013-7-26,72,58,48,61,54,45,98,87,59,30.03,29.85,10,2,10,0.03
2013-7-27,55,51,47,51,47,44,96,88,77,30.01,29.87,8,2,8,0.01
2013-7-28,63,55,48,57,52,47,96,90,76,30.05,29.90,12,2,12,0.01
2013-7-29,77,59,42,63,53,41,99,84,51,30.14,30.05,8,0,8,0.00
2013-7-30,68,62,56,63,60,54,98,91,75,30.14,30.04,9,1,9,0.00
2013-7-31,77,65,53,65,58,51,98,82,44,30.04,29.92,13,2,13,0.01
2013-8-1,76,62,49,63,55,48,98,78,45,29.98,29.85,10,1,10,0.00
2013-8-2,77,62,49,59,54,48,98,79,40,30.02,29.82,9,1,9,0.00
2013-8-3,76,60,44,56,51,42,98,75,43,30.20,30.02,10,1,10,0.00
2013-8-4,72,58,43,59,50,41,98,80,50,30.25,30.06,6,0,6,0.00
2013-8-5,71,60,49,67,58,48,98,95,84,30.06,29.79,6,1,6,0.00
2013-8-6,77,66,61,65,62,59,98,88,54,29.81,29.60,7,1,7,0.01
2013-8-7,75,63,50,60,56,48,98,80,42,30.01,29.70,8,1,8,0.00
2013-8-8,74,58,43,63,53,41,98,85,51,30.05,29.97,9,1,9,0.00
2013-8-9,74,62,51,57,54,50,98,77,46,30.09,29.96,12,1,12,0.00
2013-8-10,75,62,51,59,55,49,95,79,46,30.16,30.08,6,1,6,0.00
2013-8-11,80,60,44,60,53,42,98,79,43,30.12,30.00,5,1,5,0.00
2013-8-12,78,62,47,61,55,45,98,79,48,30.08,29.94,12,1,12,0.00
2013-8-13,69,54,40,55,47,39,98,79,50,30.21,30.08,6,1,6,0.00
2013-8-14,74,55,37,55,46,35,98,77,43,30.24,30.11,7,0,7,0.00
2013-8-15,81,61,46,62,52,44,98,77,39,30.14,30.07,7,0,7,0.00
2013-8-16,82,62,46,64,55,44,98,81,45,30.17,30.12,6,0,6,0.00
2013-8-17,82,63,46,61,54,45,98,77,41,30.22,30.10,12,2,12,0.00
2013-8-18,82,63,46,63,54,44,98,76,41,30.17,30.01,15,2,15,0.00
2013-8-19,84,68,55,70,62,53,96,82,56,30.03,29.90,14,2,14,0.00
2013-8-20,88,74,63,73,67,62,98,82,57,29.93,29.83,12,2,12,0.00
2013-8-21,81,72,61,77,69,59,98,91,76,29.99,29.81,10,1,10,0.00
2013-8-22,81,66,50,62,56,48,98,75,34,30.15,29.99,7,1,7,0.00
2013-8-23,85,62,41,64,53,40,98,77,33,30.20,30.07,7,1,7,0.00
2013-8-24,83,70,55,71,63,54,98,79,61,30.15,29.94,15,4,15,0.00
2013-8-25,94,81,71,76,72,69,94,77,51,29.99,29.88,12,4,12,0.00
2013-8-26,86,77,70,81,74,68,99,90,75,29.97,29.83,10,1,10,0.00
2013-8-27,84,73,67,78,72,66,99,95,75,29.90,29.77,4,0,4,1.50
2013-8-28,84,70,59,72,66,58,99,88,48,30.02,29.90,4,0,4,0.00
2013-8-29,86,72,63,76,69,62,99,91,70,30.03,29.77,15,1,15,1.25
2013-8-30,80,70,58,70,66,57,99,88,61,29.91,29.79,7,1,7,0.00
2013-8-31,84,66,52,70,62,51,99,86,56,29.90,29.70,10,1,10,0.01
2013-9-1,76,66,59,65,61,55,98,84,63,29.92,29.68,12,2,12,0.00
2013-9-2,64,56,44,55,51,43,95,84,64,30.06,29.92,6,1,6,0.00
2013-9-3,77,56,38,61,50,36,99,82,49,30.10,29.97,8,1,8,0.00
2013-9-4,77,61,48,62,55,47,99,83,49,30.19,30.00,8,1,8,0.00
2013-9-5,77,57,40,59,50,39,99,79,42,30.29,30.17,9,1,9,0.00
2013-9-6,84,66,50,72,62,48,98,87,61,30.17,29.88,13,1,13,0.00
2013-9-7,87,70,59,74,65,57,99,86,57,30.07,29.85,8,1,8,0.00
2013-9-8,69,59,46,61,54,45,98,86,58,30.13,29.93,7,1,7,0.04
2013-9-9,83,68,60,75,66,58,99,94,73,29.94,29.62,10,1,10,0.04
2013-9-10,77,69,62,70,66,61,99,91,73,29.91,29.69,8,1,8,0.02
2013-9-11,80,65,56,66,59,53,99,83,44,30.01,29.91,12,1,12,0.02
2013-9-12,66,57,43,57,51,41,98,83,55,30.23,29.98,8,1,8,0.01
2013-9-13,67,49,36,52,43,34,98,83,51,30.30,30.13,5,0,5,0.00
2013-9-14,71,53,36,57,47,34,98,84,51,30.14,29.95,12,1,12,0.23
2013-9-15,58,52,37,56,50,35,98,93,82,30.34,29.95,8,0,8,0.18
2013-9-16,66,46,32,49,40,31,98,83,43,30.48,30.33,5,0,5,0.00
2013-9-17,68,51,34,54,44,33,98,79,44,30.34,30.03,15,2,15,0.03
2013-9-18,65,61,57,64,60,54,98,97,87,30.03,29.77,8,1,8,0.05
2013-9-19,74,66,61,71,65,61,100,97,90,29.79,29.64,9,1,9,0.19
2013-9-20,65,58,48,65,55,46,98,90,72,29.85,29.67,12,2,12,0.07
2013-9-21,61,50,37,48,44,36,95,80,56,30.00,29.85,10,2,10,0.00
2013-9-22,65,47,31,50,41,30,98,80,51,30.11,29.98,10,1,10,0.00
2013-9-23,69,55,44,54,48,42,97,80,53,30.07,29.98,14,2,14,0.00
2013-9-24,74,54,39,55,47,37,98,81,44,30.05,29.95,8,1,8,0.00
2013-9-25,73,53,38,58,47,37,99,82,46,30.03,29.94,5,1,5,0.00
2013-9-26,74,55,38,56,48,37,98,81,50,30.06,29.96,12,2,12,0.00
2013-9-27,78,66,53,62,56,50,93,71,56,30.03,29.87,18,4,18,0.00
2013-9-28,72,60,47,62,54,45,96,81,57,29.92,29.61,19,4,19,0.18
2013-9-29,71,53,36,55,46,36,99,80,41,29.99,29.85,9,1,9,0.00
2013-9-30,73,60,50,54,50,47,90,72,49,29.89,29.65,18,3,18,0.00
2013-10-1,74,62,44,56,48,36,88,64,27,29.94,29.60,14,2,14,0.00
2013-10-2,74,54,34,53,41,32,98,70,27,30.08,29.93,7,1,7,0.36
2013-10-3,58,54,52,55,53,51,98,96,88,30.00,29.88,7,0,7,0.39
2013-10-4,58,54,52,54,53,51,98,95,83,30.06,29.96,10,1,10,0.07
2013-10-5,57,55,53,56,54,52,98,98,94,30.00,29.69,10,1,10,0.83
2013-10-6,61,52,46,54,50,44,99,94,71,29.77,29.65,7,1,7,0.08
2013-10-7,62,46,36,49,43,35,99,89,53,30.03,29.73,12,1,12,0.01
2013-10-8,73,54,33,49,42,32,98,68,35,30.06,29.91,16,4,16,0.00
2013-10-9,73,60,50,54,49,46,89,69,45,30.08,29.97,16,2,16,0.00
2013-10-10,72,54,37,50,45,36,98,75,41,30.11,29.98,12,1,12,0.00
2013-10-11,73,58,40,58,50,38,98,75,52,30.01,29.74,20,3,20,0.00
2013-10-12,65,56,47,56,47,41,87,73,58,30.09,29.71,16,4,16,0.00
2013-10-13,58,47,32,45,38,29,91,74,40,30.43,30.08,12,2,12,0.00
2013-10-14,57,43,29,42,35,27,96,76,46,30.47,30.14,10,1,10,0.00
2013-10-15,53,50,46,52,48,41,98,94,70,30.15,29.68,8,1,8,0.03
2013-10-16,47,41,31,46,40,30,97,93,80,29.92,29.74,9,2,9,0.00
2013-10-17,50,40,30,45,38,29,98,94,79,29.91,29.80,4,0,4,0.00
2013-10-18,48,42,35,43,39,32,97,89,57,29.93,29.80,10,1,10,0.00
2013-10-19,43,38,30,40,36,29,96,93,82,29.85,29.68,8,1,8,0.01
2013-10-20,41,33,27,37,31,25,96,93,87,29.81,29.71,7,0,7,0.00
2013-10-21,35,33,31,34,30,25,96,86,68,29.89,29.78,15,4,15,0.00
2013-10-22,38,35,31,33,30,27,92,82,72,30.03,29.89,10,2,10,0.00
2013-10-23,38,34,29,31,27,24,89,77,60,30.06,29.98,10,2,10,0.00
2013-10-24,40,36,32,32,29,26,86,77,65,30.29,30.06,14,2,14,0.00
2013-10-25,52,39,26,41,31,23,93,75,56,30.31,29.71,18,3,18,0.00
2013-10-26,48,42,37,40,34,31,86,76,65,30.05,29.71,14,3,14,0.00
2013-10-27,51,38,29,36,31,27,93,77,52,30.21,29.83,12,2,12,0.00
2013-10-28,40,33,25,32,24,19,88,71,46,30.51,30.21,13,2,13,0.00
2013-10-29,37,32,23,35,28,20,92,86,74,30.51,30.19,7,0,7,0.01
2013-10-30,49,44,37,49,42,35,98,95,90,30.19,29.70,6,1,6,0.01
2013-10-31,52,48,44,52,48,44,99,98,98,29.70,29.28,6,1,6,0.02
2013-11-1,44,41,37,44,39,35,98,95,92,29.80,29.30,9,2,9,0.00
2013-11-2,43,36,26,36,32,24,96,87,60,30.17,29.80,8,1,8,0.00
2013-11-3,46,36,22,36,30,20,96,79,61,30.25,30.06,21,4,21,0.00
2013-11-4,44,42,32,43,38,30,97,87,72,30.15,29.90,17,4,17,0.01
2013-11-5,44,35,27,40,33,26,96,92,76,30.28,30.02,5,0,5,0.01
2013-11-6,35,32,23,33,29,21,97,91,82,30.17,29.97,10,1,10,0.00
2013-11-7,36,27,19,28,22,17,94,84,66,30.23,30.17,9,1,9,0.00
2013-11-8,38,29,15,35,25,13,94,86,75,30.25,29.68,13,2,13,0.02
2013-11-9,39,37,36,37,34,31,95,89,80,30.08,29.63,15,4,15,0.00
2013-11-10,42,37,34,32,30,27,84,75,56,30.31,30.09,12,3,12,0.00
2013-11-11,36,25,18,31,15,10,85,67,53,30.70,30.09,10,3,10,0.00
2013-11-12,28,20,14,14,11,8,82,68,43,30.78,30.50,9,2,9,0.00
2013-11-13,46,30,16,31,22,11,88,73,52,30.50,29.89,15,3,15,0.00
2013-11-14,42,34,28,34,30,26,93,85,72,29.89,29.78,12,1,12,0.00
2013-11-15,50,35,25,40,31,22,94,86,67,29.90,29.76,9,1,9,0.00
2013-11-16,50,42,38,49,40,34,98,89,79,29.77,29.30,16,2,16,0.02
2013-11-17,49,40,32,49,39,28,99,95,85,29.64,29.29,21,2,21,0.00
2013-11-18,32,29,25,28,22,20,87,77,69,30.30,29.64,17,3,17,0.00
2013-11-19,38,28,15,24,20,12,92,72,51,30.35,30.07,16,2,16,0.00
2013-11-20,41,37,34,32,28,23,92,69,54,30.09,30.02,18,4,18,0.01
2013-11-21,36,32,25,35,30,21,94,91,85,30.49,30.09,8,1,8,0.01
2013-11-22,31,23,13,21,15,5,87,71,39,30.58,30.42,15,3,15,0.00
2013-11-23,15,11,5,8,3,-1,84,69,51,30.80,30.58,14,3,14,0.00
2013-11-24,24,13,-3,16,5,-7,84,70,55,30.75,30.02,18,4,18,0.00
2013-11-25,38,32,24,29,24,16,81,73,61,30.02,29.89,15,4,15,0.00
2013-11-26,29,18,12,19,9,4,85,68,57,30.36,30.01,13,3,13,0.00
2013-11-27,25,19,13,18,14,9,87,80,61,30.39,30.18,9,1,9,0.27
2013-11-28,24,19,10,18,15,6,89,84,77,30.56,30.16,7,1,7,0.02
2013-11-29,26,14,-3,20,9,-7,90,81,74,30.64,30.29,17,2,17,0.00
2013-11-30,35,29,25,28,24,20,87,80,71,30.29,30.06,12,1,12,0.00
2013-12-1,35,32,28,29,27,23,86,81,76,30.21,29.99,4,0,4,0.00
2013-12-2,33,28,18,31,26,15,95,90,82,29.99,29.76,6,1,6,0.11
2013-12-3,32,30,27,31,29,25,95,94,92,29.91,29.74,4,0,4,0.21
2013-12-4,35,30,26,34,29,24,96,94,92,29.90,29.39,0,0,0,0.98
2013-12-5,22,9,-1,19,5,-5,91,85,82,30.31,29.57,0,0,0,0.00
2013-12-6,5,-3,-10,1,-7,-14,86,82,79,30.66,30.31,0,0,0,0.00
2013-12-7,1,-11,-22,-4,-15,-27,84,80,78,30.78,30.66,0,0,0,0.00
2013-12-8,11,-1,-22,8,-5,-27,87,83,78,30.70,30.12,0,0,0,0.04
2013-12-9,12,0,-18,8,-4,-22,87,82,76,30.13,29.98,12,1,12,0.01
2013-12-10,6,-5,-15,2,-9,-19,89,81,78,30.31,29.92,10,1,10,0.00
2013-12-11,-2,-8,-16,-7,-13,-21,87,80,76,30.59,30.32,7,0,7,0.00
2013-12-12,14,5,-14,9,1,-18,86,82,79,30.46,30.25,5,0,5,0.01
2013-12-13,13,9,5,9,5,1,85,83,80,30.43,30.26,4,0,4,0.02
2013-12-14,18,11,6,15,8,2,87,84,82,30.43,30.04,7,0,7,0.04
2013-12-15,7,-6,-20,3,-11,-25,84,80,74,30.26,30.05,9,1,9,0.00
2013-12-16,11,1,-18,8,-2,-23,89,83,78,30.26,29.97,6,0,6,0.08
2013-12-17,28,18,1,24,14,-3,95,85,78,30.12,29.89,8,2,8,0.06
2013-12-18,26,10,-6,21,6,-10,88,83,73,30.12,29.73,8,1,8,0.00
2013-12-19,19,15,6,15,12,3,90,86,81,30.17,29.86,9,2,9,0.03
2013-12-20,21,15,0,17,12,-3,91,86,80,30.14,29.92,4,0,4,0.02
2013-12-21,23,19,12,19,15,10,89,85,80,30.06,29.91,4,0,4,0.00
2013-12-22,26,22,14,23,18,11,92,88,84,30.18,29.98,6,0,6,0.03
2013-12-23,20,14,-3,17,11,-7,90,85,77,30.50,30.18,7,0,7,0.04
2013-12-24,10,-7,-18,6,-11,-22,87,83,79,30.54,30.42,9,1,9,0.00
2013-12-25,13,12,10,9,7,6,84,82,80,30.15,30.13,8,1,8,0.10
2013-12-26,19,13,5,15,9,2,89,84,79,30.26,30.14,6,0,6,0.00
2013-12-27,31,22,16,28,20,12,94,91,87,30.25,29.91,12,2,12,0.00
2013-12-28,35,27,11,33,25,8,95,92,87,30.03,29.77,13,2,13,0.00
2013-12-29,19,1,-21,16,-4,-26,87,79,71,30.34,29.98,12,2,12,0.00
2013-12-30,2,-13,-27,-7,-19,-32,83,75,63,30.42,30.31,4,0,4,0.00
2013-12-31,-3,-12,-23,-8,-17,-28,85,77,69,30.56,30.29,6,0,6,0.00
2014-1-1,6,-3,-20,0,-8,-25,82,78,71,30.65,30.54,1,0,1,0.00
2014-1-2,7,-7,-22,0,-12,-27,86,78,70,30.56,30.49,6,0,6,0.00